Regional Weather Roundup
Issued by NWS

Home | Current Version | Previous Version | Text Only | Print | Product List | Glossary On
Versions: 1 2 3 4 5 6 7 8 9 10 11 12 13 14 15 16 17 18 19 20 21 22 23 24 25 26 27 28 29 30 31 32 33 34 35 36 37 38 39 40 41 42 43 44 45 46 47 48 49 50
000
ASUS45 KCYS 200810
RWRWY

WYOMING REGIONAL WEATHER ROUNDUP
NATIONAL WEATHER SERVICE CHEYENNE WY
200 AM MDT MON OCT 20 2014

NOTE:  "FAIR" INDICATES FEW OR NO CLOUDS BELOW 12,000 FEET
WITH NO SIGNIFICANT WEATHER AND/OR OBSTRUCTIONS TO VISIBILITY.

WYZ001-200900-
YELLOWSTONE NATIONAL PARK

CITY           SKY/WX    TMP DP  RH WIND       PRES   REMARKS
LK YELLOWSTONE   N/A     26  21  81 CALM      30.24S
W YELLOWSTONE  NOT AVBL

$$
WYZ002>013-054>058-071-098>099-200900-
NORTHERN WYOMING

CITY           SKY/WX    TMP DP  RH WIND       PRES   REMARKS
JACKSON        CLEAR     30  25  80 NE5       30.19S WCI  25
CODY           CLEAR    N/A N/A N/A CALM      30.04F
GREYBULL       CLEAR     42  29  59 CALM      30.02S
WORLAND        CLEAR     38  27  64 SW3       30.03S
SHERIDAN       CLEAR     37  30  75 CALM      30.00S
BUFFALO        CLEAR     55  27  34 S13       30.06S
GILLETTE       CLEAR     51  36  56 S17       30.05F
HULETT         FAIR      46  36  66 CALM      30.07
NEWCASTLE      FAIR      43  34  70 MISG      30.12

$$
WYZ014>020-022>026-101>103-200900-
CENTRAL WYOMING

CITY           SKY/WX    TMP DP  RH WIND       PRES   REMARKS
BIG PINEY      PTCLDY    28  20  71 E5        30.21F WCI  23
PINEDALE       MOSUNNY   27  25  93 NW6       30.22S WCI  20
DUBOIS         FAIR      36  19  51 NW12      30.19F WCI  27
LANDER         CLEAR     48  29  47 CALM      30.10S
RIVERTON       CLEAR     43  29  57 NW12      30.11S
CASPER         CLEAR     40  31  70 N3        30.12S
DOUGLAS        CLEAR     46  34  62 SE9       30.12F

$$
WYZ021-027>030-104>119-200900-
SOUTHERN WYOMING

CITY           SKY/WX    TMP DP  RH WIND       PRES   REMARKS
EVANSTON       CLEAR     45  27  49 S7        30.19S
KEMMERER       SUNNY     36  28  75 N12       30.21S WCI  27
FORT BRIDGER   FAIR      49  30  47 W6        30.22S
ROCK SPRINGS   CLEAR     44  28  53 CALM      30.18S
DIXON          FAIR      40  30  67 S5        30.21S
RAWLINS        CLEAR     35  24  64 CALM      30.19S
SARATOGA       FAIR      36  30  80 SE7       30.21F WCI  30
LARAMIE        CLEAR     38  31  76 S9        30.23S WCI  31
CHEYENNE       CLEAR     43  34  70 W6        30.20F
TORRINGTON     CLEAR     43  34  70 NW3       30.12S
PINE BLUFFS    FAIR      36  32  87 SW3       30.18S

$$


USA.gov is the U.S. government's official web portal to all federal, state and local government web resources and services.